Breckenridge, CO

4:30 PM MST on February 10, 2016 (GMT -0700)
Copper Mountain

Weather History for KCCU - July, 2013

Change the Weather History Date:

Sunday, July 21, 2013

  Actual Average (KLXV) Record (KLXV)
Temperature  
Mean Temperature 60 °F -  
Max Temperature 68 °F 68 °F 81 °F (2005)
Min Temperature 51 °F 43 °F 32 °F (1988)
Degree Days  
Heating Degree Days 6    
Growing Degree Days 10 (Base 50)    
Moisture  
Dew Point 20 °F    
Average Humidity 22    
Maximum Humidity 47    
Minimum Humidity 11    
Precipitation  
Precipitation 0.00 in - - ()
Sea Level Pressure  
Sea Level Pressure 30.57 in    
Wind  
Wind Speed 17 mph (West)    
Max Wind Speed 33 mph    
Max Gust Speed 44 mph    
Visibility 10 miles    
Events      
Averages and records for this station are not official NWS values.
T = Trace of Precipitation, MM = Missing Value Source: NWS Daily Summary

Daily Weather History Graph

Daily Weather History Graph

Search for Another Location

Airport or City:

Trip Planner

Search our weather history database for the weather conditions in past years. The results will help you decide how hot, cold, wet, or windy it might be!

Date:

Astronomy

Jul. 21, 2013 Rise Set
Actual Time 5:54 AM MDT 8:26 PM MDT
Civil Twilight 5:23 AM MDT 8:57 PM MDT
Nautical Twilight 4:45 AM MDT 9:35 PM MDT
Astronomical Twilight 4:02 AM MDT 10:18 PM MDT
Moon 7:27 PM MDT (7/21) 4:43 AM MDT (7/21)
Length of Visible Light 15h 33m
Length of Day
14h 31m
Waxing Gibbous, 98% of the Moon is Illuminated
Jul 21
Waxing Gibbous
Jul 22
Full
Jul 29
Last Quarter
Aug 6
New
Aug 14
First Quarter

Hourly Weather History & Observations

Time (MDT) Temp. Dew Point Humidity Pressure Visibility Wind Dir Wind Speed Gust Speed Precip Events Conditions
12:12 AM 55.4 °F 35.6 °F 47% 30.56 in 10.0 mi South 21.9 mph - N/A   Clear
12:32 AM 55.4 °F 33.8 °F 44% 30.55 in 10.0 mi South 18.4 mph 26.5 mph N/A   Clear
12:52 AM 55.4 °F 33.8 °F 44% 30.55 in 10.0 mi South 17.3 mph 24.2 mph N/A   Clear
1:12 AM 53.6 °F 33.8 °F 47% 30.55 in 10.0 mi WSW 12.7 mph 25.3 mph N/A   Clear
1:32 AM 55.4 °F 30.2 °F 38% 30.55 in 10.0 mi West 8.1 mph 18.4 mph N/A   Clear
1:52 AM 55.4 °F 30.2 °F 38% 30.54 in 10.0 mi West 16.1 mph 27.6 mph N/A   Clear
2:12 AM 53.6 °F 30.2 °F 41% 30.54 in 10.0 mi WSW 13.8 mph 18.4 mph N/A   Clear
2:32 AM 53.6 °F 26.6 °F 35% 30.54 in 10.0 mi West 12.7 mph 21.9 mph N/A   Clear
2:52 AM 53.6 °F 26.6 °F 35% 30.54 in 10.0 mi West 13.8 mph 23.0 mph N/A   Clear
3:12 AM 53.6 °F 28.4 °F 38% 30.54 in 10.0 mi West 12.7 mph 18.4 mph N/A   Clear
3:32 AM 53.6 °F 26.6 °F 35% 30.54 in 10.0 mi WSW 12.7 mph 19.6 mph N/A   Clear
3:52 AM 53.6 °F 23.0 °F 30% 30.54 in 10.0 mi West 11.5 mph 20.7 mph N/A   Clear
4:12 AM 53.6 °F 21.2 °F 28% 30.54 in 10.0 mi WSW 15.0 mph - N/A   Clear
4:32 AM 53.6 °F 21.2 °F 28% 30.54 in 10.0 mi West 17.3 mph - N/A   Clear
4:52 AM 53.6 °F 21.2 °F 28% 30.54 in 10.0 mi West 15.0 mph - N/A   Clear
5:12 AM 53.6 °F 23.0 °F 30% 30.54 in 10.0 mi West 15.0 mph - N/A   Clear
5:32 AM 51.8 °F 24.8 °F 35% 30.53 in 10.0 mi WSW 11.5 mph 19.6 mph N/A   Clear
5:52 AM 51.8 °F 26.6 °F 38% 30.53 in 10.0 mi WSW 10.4 mph 19.6 mph N/A   Clear
6:12 AM 53.6 °F 23.0 °F 30% 30.54 in 10.0 mi West 15.0 mph 21.9 mph N/A   Clear
6:21 AM 53.6 °F 21.2 °F 28% 30.54 in 10.0 mi West 15.0 mph 24.2 mph N/A   Clear
7:12 AM 55.4 °F 17.6 °F 23% 30.54 in 10.0 mi West 20.7 mph 24.2 mph N/A   Clear
7:32 AM 55.4 °F 17.6 °F 23% 30.55 in 10.0 mi West 17.3 mph 21.9 mph N/A   Clear
7:52 AM 55.4 °F 19.4 °F 25% 30.56 in 10.0 mi West 18.4 mph - N/A   Clear
8:12 AM 59.0 °F 21.2 °F 23% 30.56 in 10.0 mi West 19.6 mph - N/A   Clear
8:32 AM 59.0 °F 23.0 °F 25% 30.56 in 10.0 mi West 21.9 mph - N/A   Clear
8:52 AM 59.0 °F 23.0 °F 25% 30.57 in 10.0 mi West 18.4 mph 26.5 mph N/A   Clear
9:12 AM 59.0 °F 21.2 °F 23% 30.57 in 10.0 mi WNW 21.9 mph 29.9 mph N/A   Clear
9:32 AM 59.0 °F 17.6 °F 20% 30.57 in 10.0 mi West 23.0 mph 28.8 mph N/A   Clear
9:52 AM 59.0 °F 15.8 °F 19% 30.57 in 10.0 mi West 25.3 mph 32.2 mph N/A   Clear
10:12 AM 60.8 °F 17.6 °F 19% 30.58 in 10.0 mi West 25.3 mph 33.4 mph N/A   Clear
10:32 AM 60.8 °F 15.8 °F 17% 30.58 in 10.0 mi West 21.9 mph 31.1 mph N/A   Clear
10:52 AM 62.6 °F 14.0 °F 15% 30.59 in 10.0 mi West 25.3 mph 33.4 mph N/A   Clear
11:12 AM 64.4 °F 15.8 °F 15% 30.59 in 10.0 mi WNW 20.7 mph 32.2 mph N/A   Clear
11:32 AM 64.4 °F 14.0 °F 14% 30.59 in 10.0 mi WNW 17.3 mph 27.6 mph N/A   Clear
11:52 AM 64.4 °F 15.8 °F 15% 30.59 in 10.0 mi WNW 16.1 mph 31.1 mph N/A   Clear
12:12 PM 62.6 °F 15.8 °F 16% 30.59 in 10.0 mi West 20.7 mph 32.2 mph N/A   Mostly Cloudy
12:32 PM 64.4 °F 12.2 °F 13% 30.59 in 10.0 mi West 19.6 mph 41.4 mph N/A   Overcast
12:52 PM 64.4 °F 12.2 °F 13% 30.58 in 10.0 mi West 28.8 mph 43.7 mph N/A   Mostly Cloudy
1:12 PM 64.4 °F 14.0 °F 14% 30.57 in 10.0 mi WNW 33.4 mph 39.1 mph N/A   Scattered Clouds
1:32 PM 64.4 °F 12.2 °F 13% 30.59 in 10.0 mi West 18.4 mph 34.5 mph N/A   Clear
1:52 PM 66.2 °F 8.6 °F 11% 30.58 in 10.0 mi WNW 23.0 mph 34.5 mph N/A   Clear
2:12 PM 64.4 °F 10.4 °F 12% 30.57 in 10.0 mi West 25.3 mph 34.5 mph N/A   Scattered Clouds
2:32 PM 64.4 °F 19.4 °F 18% 30.58 in 10.0 mi West 21.9 mph 31.1 mph N/A   Mostly Cloudy
2:52 PM 66.2 °F 8.6 °F 11% 30.57 in 10.0 mi West 16.1 mph 24.2 mph N/A   Scattered Clouds
3:12 PM 64.4 °F 14.0 °F 14% 30.58 in 10.0 mi West 16.1 mph 26.5 mph N/A   Mostly Cloudy
3:32 PM 64.4 °F 19.4 °F 18% 30.57 in 10.0 mi West 15.0 mph - N/A   Mostly Cloudy
3:52 PM 64.4 °F 17.6 °F 16% 30.58 in 10.0 mi West 16.1 mph 21.9 mph N/A   Mostly Cloudy
4:12 PM 64.4 °F 17.6 °F 16% 30.57 in 10.0 mi West 13.8 mph 24.2 mph N/A   Mostly Cloudy
4:32 PM 64.4 °F 19.4 °F 18% 30.57 in 10.0 mi West 19.6 mph 23.0 mph N/A   Mostly Cloudy
4:52 PM 64.4 °F 19.4 °F 18% 30.57 in 10.0 mi West 19.6 mph 25.3 mph N/A   Overcast
5:12 PM 68.0 °F 21.2 °F 17% 30.57 in 10.0 mi West 18.4 mph 25.3 mph N/A   Mostly Cloudy
5:32 PM 68.0 °F 19.4 °F 16% 30.56 in 10.0 mi West 23.0 mph 26.5 mph N/A   Scattered Clouds
5:52 PM 68.0 °F 19.4 °F 16% 30.56 in 10.0 mi West 20.7 mph 26.5 mph N/A   Clear
6:12 PM 68.0 °F 19.4 °F 16% 30.56 in 10.0 mi WNW 16.1 mph 23.0 mph N/A   Mostly Cloudy
6:32 PM 68.0 °F 19.4 °F 16% 30.56 in 10.0 mi West 16.1 mph 23.0 mph N/A   Mostly Cloudy
6:52 PM 64.4 °F 17.6 °F 16% 30.56 in 10.0 mi West 17.3 mph 21.9 mph N/A   Scattered Clouds
7:12 PM 64.4 °F 17.6 °F 16% 30.57 in 10.0 mi West 17.3 mph 20.7 mph N/A   Scattered Clouds
7:32 PM 64.4 °F 19.4 °F 18% 30.57 in 10.0 mi West 15.0 mph - N/A   Mostly Cloudy
7:52 PM 62.6 °F 19.4 °F 19% 30.58 in 10.0 mi West 16.1 mph - N/A   Mostly Cloudy
8:12 PM 60.8 °F 17.6 °F 19% 30.58 in 10.0 mi West 13.8 mph - N/A   Overcast
8:32 PM 59.0 °F 21.2 °F 23% 30.59 in 10.0 mi West 11.5 mph - N/A   Overcast
8:52 PM 60.8 °F 17.6 °F 19% 30.59 in 10.0 mi West 11.5 mph 17.3 mph N/A   Overcast
9:12 PM 60.8 °F 14.0 °F 16% 30.59 in 10.0 mi West 12.7 mph - N/A   Scattered Clouds
9:32 PM 60.8 °F 12.2 °F 15% 30.59 in 10.0 mi West 13.8 mph - N/A   Scattered Clouds
9:52 PM 60.8 °F 14.0 °F 16% 30.59 in 10.0 mi West 15.0 mph - N/A   Scattered Clouds
10:12 PM 60.8 °F 14.0 °F 16% 30.59 in 10.0 mi West 13.8 mph - N/A   Mostly Cloudy
10:32 PM 60.8 °F 14.0 °F 16% 30.60 in 10.0 mi WSW 6.9 mph - N/A   Overcast
10:52 PM 60.8 °F 14.0 °F 16% 30.59 in 10.0 mi WSW 8.1 mph - N/A   Overcast
11:12 PM 60.8 °F 14.0 °F 16% 30.60 in 10.0 mi SW 6.9 mph - N/A   Overcast
11:32 PM 60.8 °F 14.0 °F 16% 30.59 in 10.0 mi SW 6.9 mph - N/A   Overcast
11:52 PM 60.8 °F 14.0 °F 16% 30.59 in 10.0 mi SSW 6.9 mph - N/A   Overcast